Time,TemperatureF,DewpointF,PressureIn,WindDirection,WindDirectionDegrees,WindSpeedMPH,WindSpeedGustMPH,Humidity,HourlyPrecipIn,Conditions,Clouds,dailyrainin,SoftwareType,DateUTC
2013-06-04 00:06:00,67.3,59.8,30.00,NNW,328,0.0,0.0,77,0.00,,FEW060,0.00,VWS V13.01,2013-06-04 05:06:00,
2013-06-04 00:13:00,67.1,60.0,30.00,NNW,328,0.0,0.0,1,0.00,,FEW060,0.00,VWS V13.01,2013-06-04 05:13:00,
2013-06-04 00:14:00,67.1,60.0,30.00,NNW,328,0.0,0.0,78,0.00,,FEW060,0.00,VWS V13.01,2013-06-04 05:14:00,
2013-06-04 00:22:00,66.8,59.7,30.00,NNW,328,0.0,0.0,78,0.00,,FEW060,0.00,VWS V13.01,2013-06-04 05:22:00,
2013-06-04 00:28:00,66.8,59.7,29.99,NNW,328,0.0,0.0,1,0.00,,FEW060,0.00,VWS V13.01,2013-06-04 05:28:00,
2013-06-04 00:34:00,66.8,59.4,29.99,ENE,73,0.0,1.0,77,0.00,,FEW060,0.00,VWS V13.01,2013-06-04 05:34:00,
2013-06-04 00:42:00,66.8,59.4,29.99,ENE,73,0.0,1.0,77,0.00,,FEW060,0.00,VWS V13.01,2013-06-04 05:42:00,
2013-06-04 00:50:00,66.4,59.3,29.99,ENE,73,0.0,0.0,78,0.00,,FEW060,0.00,VWS V13.01,2013-06-04 05:50:00,
2013-06-04 00:58:00,66.3,59.6,29.99,ENE,73,0.0,0.0,79,0.00,,FEW060,0.00,VWS V13.01,2013-06-04 05:58:00,
2013-06-04 01:06:00,66.1,59.4,29.99,ENE,73,0.0,0.0,79,0.00,,CLR,0.00,VWS V13.01,2013-06-04 06:06:00,
2013-06-04 01:13:00,65.8,59.5,29.99,ENE,73,0.0,0.0,1,0.00,,CLR,0.00,VWS V13.01,2013-06-04 06:13:00,
2013-06-04 01:22:00,65.6,59.6,29.99,ENE,73,0.0,0.0,81,0.00,,CLR,0.00,VWS V13.01,2013-06-04 06:22:00,
2013-06-04 01:28:00,65.3,59.7,29.99,ENE,73,0.0,0.0,1,0.00,,CLR,0.00,VWS V13.01,2013-06-04 06:28:00,
2013-06-04 01:34:00,65.1,59.8,29.99,ENE,73,0.0,0.0,1,0.00,,CLR,0.00,VWS V13.01,2013-06-04 06:34:00,
2013-06-04 01:42:00,64.8,60.2,29.99,ENE,73,0.0,0.0,1,0.00,,CLR,0.00,VWS V13.01,2013-06-04 06:42:00,
2013-06-04 01:50:00,64.6,60.3,29.98,ENE,73,0.0,0.0,86,0.00,,CLR,0.00,VWS V13.01,2013-06-04 06:50:00,
2013-06-04 01:58:00,64.3,60.3,29.98,ENE,73,0.0,0.0,1,0.00,,CLR,0.00,VWS V13.01,2013-06-04 06:58:00,
2013-06-04 02:07:00,64.0,60.4,29.98,ENE,73,0.0,0.0,1,0.00,,CLR,0.00,VWS V13.01,2013-06-04 07:07:00,
2013-06-04 02:13:00,63.8,60.5,29.98,ENE,73,0.0,0.0,1,0.00,,CLR,0.00,VWS V13.01,2013-06-04 07:13:00,
2013-06-04 02:19:00,63.6,60.6,29.98,ENE,73,0.0,0.0,90,0.00,,CLR,0.00,VWS V13.01,2013-06-04 07:19:00,
2013-06-04 02:27:00,63.3,60.3,29.98,ENE,73,0.0,0.0,90,0.00,,CLR,0.00,VWS V13.01,2013-06-04 07:27:00,
2013-06-04 02:35:00,63.0,60.3,29.98,ENE,73,0.0,0.0,91,0.00,,CLR,0.00,VWS V13.01,2013-06-04 07:35:00,
2013-06-04 02:43:00,62.8,60.1,29.98,ENE,73,0.0,0.0,91,0.00,,CLR,0.00,VWS V13.01,2013-06-04 07:43:00,
2013-06-04 02:51:00,62.7,60.3,29.98,ENE,73,0.0,0.0,92,0.00,,CLR,0.00,VWS V13.01,2013-06-04 07:51:00,
2013-06-04 02:58:00,62.5,60.5,29.98,ENE,73,0.0,0.0,1,0.00,,CLR,0.00,VWS V13.01,2013-06-04 07:58:00,
2013-06-04 03:07:00,62.2,60.2,29.98,ENE,73,0.0,0.0,93,0.00,,CLR,0.00,VWS V13.01,2013-06-04 08:07:00,
2013-06-04 03:13:00,62.3,60.2,29.98,ENE,73,0.0,0.0,1,0.00,,CLR,0.00,VWS V13.01,2013-06-04 08:13:00,
2013-06-04 03:19:00,62.5,60.2,29.98,ENE,73,0.0,0.0,92,0.00,,CLR,0.00,VWS V13.01,2013-06-04 08:19:00,
2013-06-04 03:27:00,62.5,60.2,29.98,ENE,73,0.0,0.0,92,0.00,,CLR,0.00,VWS V13.01,2013-06-04 08:27:00,
2013-06-04 03:35:00,62.3,60.0,29.99,ENE,73,0.0,0.0,92,0.00,,CLR,0.00,VWS V13.01,2013-06-04 08:35:00,
2013-06-04 03:43:00,62.3,60.0,29.99,North,356,0.0,1.0,92,0.00,,CLR,0.00,VWS V13.01,2013-06-04 08:43:00,
2013-06-04 03:51:00,62.5,59.5,29.99,North,356,0.0,0.0,90,0.00,,CLR,0.00,VWS V13.01,2013-06-04 08:51:00,
2013-06-04 03:58:00,62.7,59.7,29.99,North,356,0.0,0.0,1,0.00,,CLR,0.00,VWS V13.01,2013-06-04 08:58:00,
2013-06-04 04:07:00,62.5,59.5,29.99,North,356,0.0,0.0,90,0.00,,CLR,0.00,VWS V13.01,2013-06-04 09:07:00,
2013-06-04 04:13:00,62.5,59.8,30.00,North,356,0.0,0.0,1,0.00,,CLR,0.00,VWS V13.01,2013-06-04 09:13:00,
2013-06-04 04:19:00,62.3,59.6,30.00,North,356,0.0,0.0,91,0.00,,CLR,0.00,VWS V13.01,2013-06-04 09:19:00,
2013-06-04 04:27:00,62.2,59.5,30.00,North,356,0.0,0.0,91,0.00,,CLR,0.00,VWS V13.01,2013-06-04 09:27:00,
2013-06-04 04:35:00,62.0,59.5,30.00,North,356,0.0,0.0,92,0.00,,CLR,0.00,VWS V13.01,2013-06-04 09:35:00,
2013-06-04 04:43:00,61.9,59.7,30.00,North,356,0.0,0.0,93,0.00,,CLR,0.00,VWS V13.01,2013-06-04 09:43:00,
2013-06-04 04:51:00,61.5,59.5,30.00,North,356,0.0,0.0,93,0.00,,CLR,0.00,VWS V13.01,2013-06-04 09:51:00,
2013-06-04 04:58:00,61.4,59.4,30.00,North,356,0.0,0.0,1,0.00,,CLR,0.00,VWS V13.01,2013-06-04 09:58:00,
2013-06-04 05:07:00,61.2,59.5,30.00,North,356,0.0,0.0,94,0.00,,CLR,0.00,VWS V13.01,2013-06-04 10:07:00,
2013-06-04 05:13:00,61.1,59.4,30.00,North,356,0.0,0.0,1,0.00,,CLR,0.00,VWS V13.01,2013-06-04 10:13:00,
2013-06-04 05:20:00,61.1,59.4,30.00,North,356,0.0,0.0,94,0.00,,CLR,0.00,VWS V13.01,2013-06-04 10:20:00,
2013-06-04 05:28:00,60.9,59.5,30.00,North,356,0.0,0.0,95,0.00,,CLR,0.00,VWS V13.01,2013-06-04 10:28:00,
2013-06-04 05:36:00,60.7,59.3,30.00,North,356,0.0,0.0,95,0.00,,CLR,0.00,VWS V13.01,2013-06-04 10:36:00,
2013-06-04 05:43:00,60.9,59.5,30.00,North,356,0.0,0.0,1,0.00,,CLR,0.00,VWS V13.01,2013-06-04 10:43:00,
2013-06-04 05:52:00,61.1,59.7,30.00,North,356,0.0,0.0,95,0.00,,CLR,0.00,VWS V13.01,2013-06-04 10:52:00,
2013-06-04 05:58:00,61.1,59.7,30.00,North,356,0.0,0.0,1,0.00,,CLR,0.00,VWS V13.01,2013-06-04 10:58:00,
2013-06-04 06:04:00,61.2,59.8,30.00,North,356,0.0,0.0,95,0.00,,CLR,0.00,VWS V13.01,2013-06-04 11:04:00,
2013-06-04 06:12:00,61.2,59.8,30.00,North,356,0.0,0.0,95,0.00,,CLR,0.00,VWS V13.01,2013-06-04 11:12:00,
2013-06-04 06:20:00,61.2,59.8,30.00,North,356,0.0,0.0,95,0.00,,CLR,0.00,VWS V13.01,2013-06-04 11:20:00,
2013-06-04 06:28:00,61.4,60.0,30.01,North,356,0.0,0.0,95,0.00,,CLR,0.00,VWS V13.01,2013-06-04 11:28:00,
2013-06-04 06:36:00,61.7,60.3,30.01,North,356,0.0,0.0,95,0.00,,CLR,0.00,VWS V13.01,2013-06-04 11:36:00,
2013-06-04 06:43:00,61.9,60.2,30.01,North,356,0.0,0.0,1,0.00,,CLR,0.00,VWS V13.01,2013-06-04 11:43:00,
2013-06-04 06:52:00,62.3,60.6,30.01,North,356,0.0,0.0,94,0.00,,CLR,0.00,VWS V13.01,2013-06-04 11:52:00,
2013-06-04 06:58:00,62.7,60.0,30.01,NE,49,0.0,1.0,1,0.00,,CLR,0.00,VWS V13.01,2013-06-04 11:58:00,
2013-06-04 07:04:00,63.0,60.3,30.01,NE,49,0.0,0.0,90,0.00,,CLR,0.00,VWS V13.01,2013-06-04 12:04:00,
2013-06-04 07:12:00,63.6,60.3,30.01,NE,49,0.0,0.0,89,0.00,,CLR,0.00,VWS V13.01,2013-06-04 12:12:00,
2013-06-04 07:20:00,64.3,61.0,30.01,NE,49,0.0,0.0,89,0.00,,CLR,0.00,VWS V13.01,2013-06-04 12:20:00,
2013-06-04 07:28:00,65.1,61.5,30.01,NE,49,0.0,0.0,88,0.00,,CLR,0.00,VWS V13.01,2013-06-04 12:28:00,
2013-06-04 07:36:00,65.9,61.6,30.01,NE,49,0.0,0.0,86,0.00,,CLR,0.00,VWS V13.01,2013-06-04 12:36:00,
2013-06-04 07:43:00,66.4,62.1,30.02,NE,49,0.0,0.0,1,0.00,,CLR,0.00,VWS V13.01,2013-06-04 12:43:00,
2013-06-04 07:52:00,66.8,62.2,30.02,NE,49,0.0,0.0,85,0.00,,CLR,0.00,VWS V13.01,2013-06-04 12:52:00,
2013-06-04 07:58:00,67.1,62.1,30.02,NE,49,0.0,0.0,1,0.00,,CLR,0.00,VWS V13.01,2013-06-04 12:58:00,
2013-06-04 08:04:00,67.4,62.4,30.02,NE,49,0.0,0.0,84,0.00,,CLR,0.00,VWS V13.01,2013-06-04 13:04:00,
2013-06-04 08:12:00,67.6,61.9,30.02,NE,49,0.0,1.0,82,0.00,,CLR,0.00,VWS V13.01,2013-06-04 13:12:00,
2013-06-04 08:20:00,67.8,61.4,30.03,NE,49,0.0,0.0,80,0.00,,CLR,0.00,VWS V13.01,2013-06-04 13:20:00,
2013-06-04 08:28:00,68.4,62.0,30.03,NE,51,0.0,0.0,80,0.00,,CLR,0.00,VWS V13.01,2013-06-04 13:28:00,
2013-06-04 08:36:00,68.9,62.1,30.03,NE,51,0.0,0.0,79,0.00,,CLR,0.00,VWS V13.01,2013-06-04 13:36:00,
2013-06-04 08:43:00,69.5,63.1,30.03,NE,51,0.0,0.0,1,0.00,,CLR,0.00,VWS V13.01,2013-06-04 13:43:00,
2013-06-04 08:48:00,69.8,63.4,30.03,North,357,0.0,0.0,1,0.00,,CLR,0.00,VWS V13.01,2013-06-04 13:48:00,
2013-06-04 08:56:00,70.1,62.6,30.03,North,357,0.0,1.0,1,0.00,,CLR,0.00,VWS V13.01,2013-06-04 13:56:00,
2013-06-04 09:04:00,70.3,62.0,30.03,North,357,0.0,0.0,75,0.00,,CLR,0.00,VWS V13.01,2013-06-04 14:04:00,
2013-06-04 09:13:00,70.7,62.0,30.03,NNW,328,0.0,1.0,1,0.00,,CLR,0.00,VWS V13.01,2013-06-04 14:13:00,
2013-06-04 09:21:00,71.3,63.0,30.04,NNW,328,0.0,0.0,75,0.00,,CLR,0.00,VWS V13.01,2013-06-04 14:21:00,
2013-06-04 09:28:00,71.9,63.2,30.03,NNW,328,0.0,1.0,1,0.00,,CLR,0.00,VWS V13.01,2013-06-04 14:28:00,
2013-06-04 09:37:00,73.1,62.3,30.03,ENE,64,0.0,0.0,71,0.00,,CLR,0.00,VWS V13.01,2013-06-04 14:37:00,
2013-06-04 09:43:00,74.0,62.4,30.04,SSW,205,0.0,3.0,1,0.00,,CLR,0.00,VWS V13.01,2013-06-04 14:43:00,
2013-06-04 09:49:00,74.7,62.2,30.04,East,83,0.0,1.0,65,0.00,,CLR,0.00,VWS V13.01,2013-06-04 14:49:00,
2013-06-04 09:57:00,75.2,63.9,30.04,East,83,0.0,1.0,68,0.00,,CLR,0.00,VWS V13.01,2013-06-04 14:57:00,
2013-06-04 10:05:00,75.7,63.1,30.03,East,85,2.0,2.0,65,0.00,,CLR,0.00,VWS V13.01,2013-06-04 15:05:00,
2013-06-04 10:13:00,76.5,62.1,30.03,East,85,0.0,1.0,61,0.00,,CLR,0.00,VWS V13.01,2013-06-04 15:13:00,
2013-06-04 10:25:00,77.0,63.9,30.03,East,92,0.0,1.0,64,0.00,,CLR,0.00,VWS V13.01,2013-06-04 15:25:00,
2013-06-04 10:33:00,77.4,63.8,30.03,ENE,59,0.0,0.0,60,0.00,,CLR,0.00,VWS V13.01,2013-06-04 15:33:00,
2013-06-04 10:41:00,77.6,62.6,30.03,NW,322,0.0,1.0,60,0.00,,CLR,0.00,VWS V13.01,2013-06-04 15:41:00,
2013-06-04 10:49:00,75.4,64.9,30.03,ENE,69,0.0,1.0,1,0.00,,CLR,0.00,VWS V13.01,2013-06-04 15:49:00,
2013-06-04 10:57:00,72.6,66.4,30.03,ENE,69,0.0,1.0,1,0.00,,CLR,0.00,VWS V13.01,2013-06-04 15:57:00,
2013-06-04 11:05:00,70.3,64.2,30.03,ENE,69,0.0,0.0,81,0.00,,CLR,0.00,VWS V13.01,2013-06-04 16:05:00,
2013-06-04 11:13:00,69.8,65.1,30.03,North,10,0.0,1.0,1,0.00,,CLR,0.00,VWS V13.01,2013-06-04 16:13:00,
2013-06-04 11:22:00,70.0,63.9,30.03,NE,42,0.0,1.0,81,0.00,,CLR,0.00,VWS V13.01,2013-06-04 16:22:00,
2013-06-04 11:28:00,70.5,64.8,30.02,NNE,31,0.0,1.0,1,0.00,,CLR,0.00,VWS V13.01,2013-06-04 16:28:00,
2013-06-04 11:34:00,70.7,63.1,30.02,NNE,31,0.0,0.0,77,0.00,,CLR,0.00,VWS V13.01,2013-06-04 16:34:00,
2013-06-04 11:43:00,72.0,63.1,30.03,NW,315,0.0,3.0,1,0.00,,CLR,0.00,VWS V13.01,2013-06-04 16:43:00,
2013-06-04 11:51:00,73.6,65.4,30.03,NW,315,0.0,0.0,75,0.00,,CLR,0.00,VWS V13.01,2013-06-04 16:51:00,
2013-06-04 11:58:00,74.8,60.9,30.03,ENE,66,0.0,1.0,1,0.00,,CLR,0.00,VWS V13.01,2013-06-04 16:58:00,
2013-06-04 12:07:00,76.6,60.2,30.03,SW,224,0.0,2.0,57,0.00,,CLR,0.00,VWS V13.01,2013-06-04 17:07:00,
2013-06-04 12:13:00,77.9,62.0,30.02,ENE,66,0.0,2.0,1,0.00,,CLR,0.00,VWS V13.01,2013-06-04 17:13:00,
2013-06-04 12:19:00,78.9,59.8,30.02,ENE,73,0.0,0.0,52,0.00,,CLR,0.00,VWS V13.01,2013-06-04 17:19:00,
2013-06-04 12:27:00,79.8,61.7,30.02,East,89,0.0,2.0,54,0.00,,CLR,0.00,VWS V13.01,2013-06-04 17:27:00,
2013-06-04 12:35:00,80.4,59.5,30.02,East,92,0.0,1.0,49,0.00,,CLR,0.00,VWS V13.01,2013-06-04 17:35:00,
2013-06-04 12:43:00,81.2,60.2,30.02,SW,217,2.0,3.0,49,0.00,,CLR,0.00,VWS V13.01,2013-06-04 17:43:00,
2013-06-04 12:51:00,81.4,61.2,30.02,NE,41,2.0,5.0,50,0.00,,CLR,0.00,VWS V13.01,2013-06-04 17:51:00,
2013-06-04 12:58:00,81.6,61.7,30.02,NE,40,0.0,5.0,1,0.00,,CLR,0.00,VWS V13.01,2013-06-04 17:58:00,
2013-06-04 13:07:00,81.0,61.7,30.02,NE,35,0.0,1.0,52,0.00,,SCT050,0.00,VWS V13.01,2013-06-04 18:07:00,
2013-06-04 13:13:00,81.4,61.0,30.01,NE,35,2.0,2.0,1,0.00,,SCT050,0.00,VWS V13.01,2013-06-04 18:13:00,
2013-06-04 13:19:00,81.4,60.4,30.01,NE,35,0.0,1.0,1,0.00,,SCT050,0.00,VWS V13.01,2013-06-04 18:19:00,
2013-06-04 13:27:00,80.8,61.5,30.01,North,0,0.0,2.0,52,0.00,,SCT050,0.00,VWS V13.01,2013-06-04 18:27:00,
2013-06-04 13:36:00,81.0,61.7,30.01,North,0,0.0,1.0,52,0.00,,SCT050,0.00,VWS V13.01,2013-06-04 18:36:00,
2013-06-04 13:43:00,81.6,59.4,30.00,North,0,0.0,1.0,1,0.00,,SCT050,0.00,VWS V13.01,2013-06-04 18:43:00,
2013-06-04 13:52:00,82.1,62.8,30.00,North,0,0.0,1.0,52,0.00,,SCT050,0.00,VWS V13.01,2013-06-04 18:52:00,
2013-06-04 13:58:00,82.7,62.8,30.00,WNW,302,0.0,2.0,1,0.00,,SCT050,0.00,VWS V13.01,2013-06-04 18:58:00,
2013-06-04 14:04:00,82.9,62.4,30.00,WNW,296,0.0,2.0,50,0.00,,FEW055,0.00,VWS V13.01,2013-06-04 19:04:00,
2013-06-04 14:12:00,82.7,61.0,30.00,NW,313,0.0,2.0,48,0.00,,FEW055,0.00,VWS V13.01,2013-06-04 19:12:00,
2013-06-04 14:20:00,83.1,59.6,29.99,NNW,330,0.0,1.0,45,0.00,,FEW055,0.00,VWS V13.01,2013-06-04 19:20:00,
2013-06-04 14:28:00,83.5,61.2,29.99,East,83,0.0,2.0,47,0.00,,FEW055,0.00,VWS V13.01,2013-06-04 19:28:00,
2013-06-04 14:36:00,83.9,59.0,29.99,NW,319,0.0,1.0,43,0.00,,FEW055,0.00,VWS V13.01,2013-06-04 19:36:00,
2013-06-04 14:43:00,83.7,61.2,29.99,NW,311,0.0,3.0,1,0.00,,FEW055,0.00,VWS V13.01,2013-06-04 19:43:00,
2013-06-04 14:52:00,83.9,59.0,29.99,ESE,114,0.0,3.0,43,0.00,,FEW055,0.00,VWS V13.01,2013-06-04 19:52:00,
2013-06-04 14:58:00,84.3,59.4,29.98,ESE,113,0.0,3.0,1,0.00,,FEW055,0.00,VWS V13.01,2013-06-04 19:58:00,
2013-06-04 15:04:00,84.7,60.4,29.98,ESE,113,0.0,1.0,44,0.00,,CLR,0.00,VWS V13.01,2013-06-04 20:04:00,
2013-06-04 15:12:00,84.3,61.3,29.98,ESE,113,0.0,1.0,46,0.00,,CLR,0.00,VWS V13.01,2013-06-04 20:12:00,
2013-06-04 15:20:00,84.5,63.3,29.98,North,1,0.0,1.0,49,0.00,,CLR,0.00,VWS V13.01,2013-06-04 20:20:00,
2013-06-04 15:28:00,84.5,60.8,29.98,NE,48,0.0,1.0,45,0.00,,CLR,0.00,VWS V13.01,2013-06-04 20:28:00,
2013-06-04 15:36:00,84.3,61.3,29.98,NNW,344,0.0,1.0,46,0.00,,CLR,0.00,VWS V13.01,2013-06-04 20:36:00,
2013-06-04 15:43:00,84.1,61.7,29.98,NNW,343,2.0,2.0,1,0.00,,CLR,0.00,VWS V13.01,2013-06-04 20:43:00,
2013-06-04 15:52:00,83.7,60.1,29.98,NNW,344,0.0,3.0,45,0.00,,CLR,0.00,VWS V13.01,2013-06-04 20:52:00,
2013-06-04 15:58:00,83.5,61.8,29.97,NNW,344,0.0,3.0,1,0.00,,CLR,0.00,VWS V13.01,2013-06-04 20:58:00,
2013-06-04 16:04:00,83.9,61.5,29.97,NNW,344,0.0,1.0,47,0.00,,CLR,0.00,VWS V13.01,2013-06-04 21:04:00,
2013-06-04 16:12:00,84.3,60.7,29.97,NNW,343,0.0,1.0,45,0.00,,CLR,0.00,VWS V13.01,2013-06-04 21:12:00,
2013-06-04 16:20:00,83.9,62.7,29.97,NNW,343,0.0,0.0,49,0.00,,CLR,0.00,VWS V13.01,2013-06-04 21:20:00,
2013-06-04 16:28:00,83.9,61.5,29.96,NNW,343,0.0,1.0,47,0.00,,CLR,0.00,VWS V13.01,2013-06-04 21:28:00,
2013-06-04 16:36:00,83.7,62.5,29.96,NNW,343,0.0,1.0,49,0.00,,CLR,0.00,VWS V13.01,2013-06-04 21:36:00,
2013-06-04 16:43:00,83.5,61.8,29.96,NNW,343,0.0,1.0,1,0.00,,CLR,0.00,VWS V13.01,2013-06-04 21:43:00,
2013-06-04 16:48:00,83.3,61.6,29.96,NNW,343,0.0,1.0,48,0.00,,CLR,0.00,VWS V13.01,2013-06-04 21:48:00,
2013-06-04 16:56:00,83.3,62.2,29.96,NNW,343,0.0,1.0,1,0.00,,CLR,0.00,VWS V13.01,2013-06-04 21:56:00,
2013-06-04 17:04:00,83.3,61.0,29.95,NNW,343,0.0,0.0,1,0.00,,CLR,0.00,VWS V13.01,2013-06-04 22:04:00,
2013-06-04 17:12:00,82.9,62.4,29.95,NNW,344,0.0,1.0,1,0.00,,CLR,0.00,VWS V13.01,2013-06-04 22:12:00,
2013-06-04 17:21:00,82.5,61.4,29.95,NNW,344,0.0,1.0,49,0.00,,CLR,0.00,VWS V13.01,2013-06-04 22:21:00,
2013-06-04 17:28:00,82.5,62.0,29.95,NNW,344,0.0,1.0,1,0.00,,CLR,0.00,VWS V13.01,2013-06-04 22:28:00,
2013-06-04 17:37:00,82.3,61.2,29.95,NNW,344,0.0,0.0,49,0.00,,CLR,0.00,VWS V13.01,2013-06-04 22:37:00,
2013-06-04 17:43:00,82.1,62.2,29.95,NNW,344,0.0,1.0,1,0.00,,CLR,0.00,VWS V13.01,2013-06-04 22:43:00,
2013-06-04 17:49:00,82.1,61.1,29.95,NNW,344,0.0,0.0,49,0.00,,CLR,0.00,VWS V13.01,2013-06-04 22:49:00,
2013-06-04 17:57:00,82.3,62.4,29.95,NNW,344,0.0,0.0,51,0.00,,CLR,0.00,VWS V13.01,2013-06-04 22:57:00,
2013-06-04 18:05:00,82.5,63.1,29.95,NNW,344,0.0,1.0,52,0.00,,CLR,0.00,VWS V13.01,2013-06-04 23:05:00,
2013-06-04 18:13:00,82.5,62.0,29.95,NNW,344,0.0,1.0,50,0.00,,CLR,0.00,VWS V13.01,2013-06-04 23:13:00,
2013-06-04 18:21:00,82.3,61.2,29.95,NNW,344,0.0,1.0,49,0.00,,CLR,0.00,VWS V13.01,2013-06-04 23:21:00,
2013-06-04 18:28:00,82.3,61.8,29.95,NNW,344,0.0,1.0,1,0.00,,CLR,0.00,VWS V13.01,2013-06-04 23:28:00,
2013-06-04 18:37:00,82.0,62.7,29.95,NNW,344,0.0,0.0,52,0.00,,CLR,0.00,VWS V13.01,2013-06-04 23:37:00,
2013-06-04 18:43:00,82.0,62.1,29.95,NNW,344,0.0,0.0,1,0.00,,CLR,0.00,VWS V13.01,2013-06-04 23:43:00,
2013-06-04 18:49:00,81.8,62.5,29.95,NNW,344,0.0,0.0,52,0.00,,CLR,0.00,VWS V13.01,2013-06-04 23:49:00,
2013-06-04 18:57:00,81.2,61.9,29.95,NNW,344,0.0,0.0,52,0.00,,CLR,0.00,VWS V13.01,2013-06-04 23:57:00,
2013-06-04 19:05:00,80.6,63.0,29.95,NNW,344,0.0,0.0,55,0.00,,CLR,0.00,VWS V13.01,2013-06-05 00:05:00,
2013-06-04 19:13:00,80.2,62.6,29.95,NNW,344,0.0,0.0,55,0.00,,CLR,0.00,VWS V13.01,2013-06-05 00:13:00,
2013-06-04 19:21:00,79.8,62.7,29.95,NNW,344,0.0,0.0,56,0.00,,CLR,0.00,VWS V13.01,2013-06-05 00:21:00,
2013-06-04 19:28:00,79.4,63.8,29.96,NNW,344,0.0,0.0,1,0.00,,CLR,0.00,VWS V13.01,2013-06-05 00:28:00,
2013-06-04 19:33:00,79.2,64.6,29.96,NNW,344,0.0,0.0,61,0.00,,CLR,0.00,VWS V13.01,2013-06-05 00:33:00,
2013-06-04 19:41:00,78.9,65.5,29.96,NNW,344,0.0,0.0,1,0.00,,CLR,0.00,VWS V13.01,2013-06-05 00:41:00,
2013-06-04 19:49:00,78.1,64.9,29.96,NNW,344,0.0,0.0,1,0.00,,CLR,0.00,VWS V13.01,2013-06-05 00:49:00,
2013-06-04 19:57:00,77.8,64.9,29.96,NNW,344,0.0,0.0,1,0.00,,CLR,0.00,VWS V13.01,2013-06-05 00:57:00,
2013-06-04 20:05:00,77.2,64.1,29.95,NNW,344,0.0,0.0,64,0.00,,CLR,0.00,VWS V13.01,2013-06-05 01:05:00,
2013-06-04 20:13:00,76.6,64.4,29.96,NNW,344,0.0,0.0,1,0.00,,CLR,0.00,VWS V13.01,2013-06-05 01:13:00,
2013-06-04 20:22:00,76.1,63.9,29.96,NNW,344,0.0,0.0,66,0.00,,CLR,0.00,VWS V13.01,2013-06-05 01:22:00,
2013-06-04 20:28:00,75.6,63.9,29.96,NNW,344,0.0,0.0,1,0.00,,CLR,0.00,VWS V13.01,2013-06-05 01:28:00,
2013-06-04 20:34:00,75.2,63.9,29.96,NNW,344,0.0,0.0,68,0.00,,CLR,0.00,VWS V13.01,2013-06-05 01:34:00,
2013-06-04 20:42:00,74.5,64.5,29.96,NNW,344,0.0,0.0,71,0.00,,CLR,0.00,VWS V13.01,2013-06-05 01:42:00,
2013-06-04 20:50:00,74.0,64.4,29.97,NNW,344,0.0,0.0,72,0.00,,CLR,0.00,VWS V13.01,2013-06-05 01:50:00,
2013-06-04 20:58:00,73.6,64.0,29.97,NNW,344,0.0,0.0,72,0.00,,CLR,0.00,VWS V13.01,2013-06-05 01:58:00,
2013-06-04 21:06:00,73.4,64.2,29.97,NNW,344,0.0,0.0,73,0.00,,CLR,0.00,VWS V13.01,2013-06-05 02:06:00,
2013-06-04 21:13:00,73.3,63.9,29.98,NNW,344,0.0,0.0,1,0.00,,CLR,0.00,VWS V13.01,2013-06-05 02:13:00,
2013-06-04 21:22:00,72.7,63.9,29.98,NNW,344,0.0,0.0,74,0.00,,CLR,0.00,VWS V13.01,2013-06-05 02:22:00,
2013-06-04 21:28:00,72.4,64.0,29.98,NNW,344,0.0,0.0,1,0.00,,CLR,0.00,VWS V13.01,2013-06-05 02:28:00,
2013-06-04 21:34:00,72.0,64.0,29.98,NNW,344,0.0,0.0,76,0.00,,CLR,0.00,VWS V13.01,2013-06-05 02:34:00,
2013-06-04 21:42:00,71.7,64.1,29.98,NNW,344,0.0,0.0,77,0.00,,CLR,0.00,VWS V13.01,2013-06-05 02:42:00,
2013-06-04 21:50:00,71.3,64.5,29.98,NNW,344,0.0,0.0,79,0.00,,CLR,0.00,VWS V13.01,2013-06-05 02:50:00,
2013-06-04 21:58:00,71.0,64.5,29.98,NNW,344,0.0,0.0,80,0.00,,CLR,0.00,VWS V13.01,2013-06-05 02:58:00,
2013-06-04 22:06:00,70.7,64.2,29.98,NNW,344,0.0,0.0,80,0.00,,CLR,0.00,VWS V13.01,2013-06-05 03:06:00,
2013-06-04 22:13:00,70.7,65.3,29.98,NNW,344,0.0,0.0,1,0.00,,CLR,0.00,VWS V13.01,2013-06-05 03:13:00,
2013-06-04 22:22:00,70.7,65.3,29.98,NNW,344,0.0,0.0,83,0.00,,CLR,0.00,VWS V13.01,2013-06-05 03:22:00,
2013-06-04 22:28:00,70.5,65.1,29.98,NNW,344,0.0,0.0,1,0.00,,CLR,0.00,VWS V13.01,2013-06-05 03:28:00,
2013-06-04 22:34:00,70.5,65.1,29.98,NNW,344,0.0,0.0,83,0.00,,CLR,0.00,VWS V13.01,2013-06-05 03:34:00,
2013-06-04 22:42:00,70.1,65.1,29.98,NNW,344,0.0,0.0,84,0.00,,CLR,0.00,VWS V13.01,2013-06-05 03:42:00,
2013-06-04 22:50:00,70.0,64.9,29.99,NNW,344,0.0,0.0,1,0.00,,CLR,0.00,VWS V13.01,2013-06-05 03:50:00,
2013-06-04 22:58:00,69.6,64.9,29.99,NNW,344,0.0,0.0,1,0.00,,CLR,0.00,VWS V13.01,2013-06-05 03:58:00,
2013-06-04 23:02:00,69.6,64.9,29.99,NNW,344,0.0,0.0,85,0.00,,CLR,0.00,VWS V13.01,2013-06-05 04:02:00,
2013-06-04 23:06:00,69.5,65.1,29.99,NNW,344,0.0,0.0,86,0.00,,CLR,0.00,VWS V13.01,2013-06-05 04:06:00,
2013-06-04 23:10:00,69.5,65.5,29.99,NNW,344,0.0,0.0,87,0.00,,CLR,0.00,VWS V13.01,2013-06-05 04:10:00,
2013-06-04 23:13:00,69.3,65.3,29.98,NNW,344,0.0,0.0,1,0.00,,CLR,0.00,VWS V13.01,2013-06-05 04:13:00,
2013-06-04 23:19:00,69.1,65.1,29.98,NNW,344,0.0,0.0,87,0.00,,CLR,0.00,VWS V13.01,2013-06-05 04:19:00,
2013-06-04 23:27:00,68.9,65.2,29.98,NNW,344,0.0,0.0,88,0.00,,CLR,0.00,VWS V13.01,2013-06-05 04:27:00,
2013-06-04 23:35:00,68.8,65.4,29.99,NNW,344,0.0,0.0,89,0.00,,CLR,0.00,VWS V13.01,2013-06-05 04:35:00,
2013-06-04 23:43:00,68.4,65.4,29.99,NNW,344,0.0,0.0,90,0.00,,CLR,0.00,VWS V13.01,2013-06-05 04:43:00,
2013-06-04 23:51:00,68.3,65.6,29.99,NNW,344,0.0,0.0,91,0.00,,CLR,0.00,VWS V13.01,2013-06-05 04:51:00,
2013-06-04 23:58:00,67.9,65.5,29.99,NNW,344,0.0,0.0,1,0.00,,CLR,0.00,VWS V13.01,2013-06-05 04:58:00,